Regional Weather Roundup
Issued by NWS

Home | Current Version | Previous Version | Text Only | Print | Product List | Glossary Off
Versions: 1 2 3 4 5 6 7 8 9 10 11 12 13 14 15 16 17 18 19 20 21 22 23 24 25 26 27 28 29 30 31 32 33 34 35 36 37 38 39 40 41 42 43 44 45 46 47 48 49 50

000
ASUS45 KCYS 271010
RWRWY

WYOMING REGIONAL WEATHER ROUNDUP
NATIONAL WEATHER SERVICE CHEYENNE WY
300 AM MST THU NOV 27 2014

NOTE:  "FAIR" INDICATES FEW OR NO CLOUDS BELOW 12,000 FEET
WITH NO SIGNIFICANT WEATHER AND/OR OBSTRUCTIONS TO VISIBILITY.

WYZ001-271100-
YELLOWSTONE NATIONAL PARK

CITY           SKY/WX    TMP DP  RH WIND       PRES   REMARKS
LK YELLOWSTONE   N/A     32  27  81 VRB3      30.26S
W YELLOWSTONE  NOT AVBL

$$
WYZ002>013-054>058-071-098>099-271100-
NORTHERN WYOMING

CITY           SKY/WX    TMP DP  RH WIND       PRES   REMARKS
JACKSON        CLOUDY    37  30  75 SW5       30.26R WCI  34
CODY           MOCLDY    21  21 100 NE3       30.06S
GREYBULL       CLOUDY    22  21  96 CALM      30.13F
WORLAND        FOG       20  18  92 CALM      30.12F VSB 1/4
SHERIDAN       FOG       23  22  96 CALM      30.05S VSB 1/2
BUFFALO        MOCLDY    30  21  69 VRB7      30.04F WCI  23
GILLETTE       PTCLDY    25  20  81 S20       30.07F WCI  11
HULETT           N/A    N/A N/A N/A MISG        N/A
NEWCASTLE      FAIR      21  21 100 CALM      30.16S

$$
WYZ014>020-022>026-101>103-271100-
CENTRAL WYOMING

CITY           SKY/WX    TMP DP  RH WIND       PRES   REMARKS
BIG PINEY      PTCLDY   N/A N/A N/A N5        30.33S
PINEDALE       MOSUNNY   14  12  92 W5        30.35R WCI   6
DUBOIS         FAIR      36  25  64 NW12G17   30.21S WCI  27
LANDER         PTCLDY    34  23  64 VRB3      30.16F
RIVERTON       PTCLDY    33  25  72 W9        30.18S WCI  25
CASPER         CLOUDY    38  27  64 SW10      30.16S WCI  31
DOUGLAS        CLOUDY    21  18  88 CALM      30.17S

$$
WYZ021-027>030-104>119-271100-
SOUTHERN WYOMING

CITY           SKY/WX    TMP DP  RH WIND       PRES   REMARKS
EVANSTON       PTCLDY    35  23  61 SW21      30.36S WCI  24
FORT BRIDGER   FAIR      41  20  43 W21G30    30.36S
ROCK SPRINGS   MOCLDY    35  20  54 W12       30.33F WCI  27
DIXON          FAIR      29  26  87 CALM      30.42S
RAWLINS        CLOUDY    38  22  52 W22G31    30.29F WCI  27
SARATOGA       FAIR      37  23  56 MISG      30.33S
LARAMIE        PTCLDY    36  20  52 SW8       30.27F WCI  30
CHEYENNE       MOCLDY    43  22  43 W23G31    30.20F
TORRINGTON     CLOUDY    20  18  92 E3        30.18F FOG
PINE BLUFFS    FAIR      23  21  93 S13       30.22S WCI  11

$$



USA.gov is the U.S. government's official web portal to all federal, state and local government web resources and services.